sat.trackr.live / text

‹ back to catalog

RS-44 & BREEZE-KM R/B

NORAD 44909 · 2019-096E

PAYLOAD ACTIVE UNKNOWN

§ Identity

Operator
Country
CIS
Launch date
2019-12-26
Launch site
PLMSC
Launch vehicle
Mass (kg)
RCS (m²)

Purposes: comms

External: N2YO · Heavens-Above · Gunter

§ Orbital elements

Epoch: 2026-09-20T01:42:34.983072Z

Period
112.52 min
Inclination
82.5167°
Eccentricity
0.0216349
Mean motion
12.79749405 rev/d
Perigee alt
1,175.4 km
Apogee alt
1,509.5 km
Semi-major
7,720.6 km
B*
4.0325e-5
RAAN
276.6553°
Arg perigee
282.6062°
Mean anomaly
75.0925°
Rev number
31,448

§ Raw data

RS-44 & BREEZE-KM R/B1 44909U 19096E   26263.07123823  .00000019  00000+0  40325-4 0  99932 44909  82.5167 276.6553 0216349 282.6062  75.0925 12.79749405314488

JSON: /api/v1/satellites/44909 · /tle

For live sub-satellite position, see the globe view (requires WebGL).

§ Visibility from observer

Set your observer location to see the next 7 days of passes ≥ 10°. The values pass through the URL so the page stays shareable.

No JS? Fill the form by hand. The geolocation button needs JavaScript.

§ Radio — SatNOGS DB

ModeDescriptionDownlinkUplink
DOKA Doka-B 435.215 MHz
FSK Mode U 435.315 MHz
CW Mode U - Beacon 435.605 MHz
BPSK Mode U Audio 435.660 MHz
USB Mode V/U - Transponder 435.610 MHz–435.670 MHz 145.935 MHz–145.995 MHz

5 transmitters · refreshed weekly from db.satnogs.org